Time,TemperatureF,DewpointF,PressureIn,WindDirection,WindDirectionDegrees,WindSpeedMPH,WindSpeedGustMPH,Humidity,HourlyPrecipIn,Conditions,Clouds,dailyrainin,SoftwareType,DateUTC
2013-07-05 00:00:00,78.4,73.9,30.21,SSE,158,4.0,-999.0,86,0.00,,,0.00,Wunderground v.1.15,2013-07-05 04:00:00,
2013-07-05 00:05:00,78.4,73.9,30.21,SSE,158,4.0,-999.0,86,0.00,,,0.00,Wunderground v.1.15,2013-07-05 04:05:00,
2013-07-05 00:10:00,78.3,73.8,30.21,SSE,158,3.0,-999.0,86,0.00,,,0.00,Wunderground v.1.15,2013-07-05 04:10:00,
2013-07-05 00:15:00,78.3,73.8,30.21,SSE,158,2.0,-999.0,86,0.00,,,0.00,Wunderground v.1.15,2013-07-05 04:15:00,
2013-07-05 00:20:00,78.2,74.0,30.21,SSE,158,2.0,-999.0,87,0.00,,,0.00,Wunderground v.1.15,2013-07-05 04:20:00,
2013-07-05 00:25:00,78.2,74.0,30.21,SSE,158,2.0,-999.0,87,0.00,,,0.00,Wunderground v.1.15,2013-07-05 04:25:00,
2013-07-05 00:30:00,78.3,73.8,30.20,SSE,158,4.0,-999.0,86,0.00,,,0.00,Wunderground v.1.15,2013-07-05 04:30:00,
2013-07-05 00:35:00,78.3,73.8,30.20,SSE,158,4.0,-999.0,86,0.00,,,0.00,Wunderground v.1.15,2013-07-05 04:35:00,
2013-07-05 00:40:00,78.2,73.7,30.20,SSE,158,3.0,-999.0,86,0.00,,,0.00,Wunderground v.1.15,2013-07-05 04:40:00,
2013-07-05 00:45:00,78.1,73.9,30.20,SSE,158,3.0,-999.0,87,0.00,,,0.00,Wunderground v.1.15,2013-07-05 04:45:00,
2013-07-05 00:50:00,78.1,73.9,30.20,SSE,158,3.0,-999.0,87,0.00,,,0.00,Wunderground v.1.15,2013-07-05 04:50:00,
2013-07-05 00:55:00,78.1,73.9,30.20,SSE,158,3.0,-999.0,87,0.00,,,0.00,Wunderground v.1.15,2013-07-05 04:55:00,
2013-07-05 01:00:00,77.9,73.7,30.20,SSE,158,4.0,-999.0,87,0.00,,,0.00,Wunderground v.1.15,2013-07-05 05:00:00,
2013-07-05 01:05:00,77.9,73.7,30.20,SSE,158,4.0,-999.0,87,0.00,,,0.00,Wunderground v.1.15,2013-07-05 05:05:00,
2013-07-05 01:10:00,77.8,74.0,30.20,SSE,158,4.0,-999.0,88,0.00,,,0.00,Wunderground v.1.15,2013-07-05 05:10:00,
2013-07-05 01:15:00,77.8,74.0,30.20,SSE,158,4.0,-999.0,88,0.00,,,0.00,Wunderground v.1.15,2013-07-05 05:15:00,
2013-07-05 01:20:00,77.7,73.9,30.20,SSE,158,3.0,-999.0,88,0.00,,,0.00,Wunderground v.1.15,2013-07-05 05:20:00,
2013-07-05 01:25:00,77.7,73.9,30.20,SSE,158,3.0,-999.0,88,0.00,,,0.00,Wunderground v.1.15,2013-07-05 05:25:00,
2013-07-05 01:30:00,77.8,74.0,30.20,SSE,158,3.0,-999.0,88,0.00,,,0.00,Wunderground v.1.15,2013-07-05 05:30:00,
2013-07-05 01:35:00,77.8,74.0,30.20,SSE,158,3.0,-999.0,88,0.00,,,0.00,Wunderground v.1.15,2013-07-05 05:35:00,
2013-07-05 01:40:00,77.8,74.0,30.19,SSE,158,2.0,-999.0,88,0.00,,,0.00,Wunderground v.1.15,2013-07-05 05:40:00,
2013-07-05 01:45:00,77.9,74.1,30.19,SSE,158,3.0,-999.0,88,0.00,,,0.00,Wunderground v.1.15,2013-07-05 05:45:00,
2013-07-05 01:50:00,78.0,74.2,30.19,SSE,158,3.0,-999.0,88,0.00,,,0.00,Wunderground v.1.15,2013-07-05 05:50:00,
2013-07-05 01:55:00,78.0,74.2,30.19,SSE,158,3.0,-999.0,88,0.00,,,0.00,Wunderground v.1.15,2013-07-05 05:55:00,
2013-07-05 02:00:00,77.9,74.1,30.19,SE,135,3.0,-999.0,88,0.00,,,0.00,Wunderground v.1.15,2013-07-05 06:00:00,
2013-07-05 02:05:00,77.9,74.4,30.19,SSE,158,2.0,-999.0,89,0.00,,,0.00,Wunderground v.1.15,2013-07-05 06:05:00,
2013-07-05 02:10:00,77.8,74.3,30.19,SSE,158,3.0,-999.0,89,0.00,,,0.00,Wunderground v.1.15,2013-07-05 06:10:00,
2013-07-05 02:15:00,77.6,74.1,30.19,SE,135,2.0,-999.0,89,0.00,,,0.00,Wunderground v.1.15,2013-07-05 06:15:00,
2013-07-05 02:20:00,77.5,74.0,30.19,SE,135,2.0,-999.0,89,0.00,,,0.00,Wunderground v.1.15,2013-07-05 06:20:00,
2013-07-05 02:25:00,77.5,74.0,30.19,SE,135,2.0,-999.0,89,0.00,,,0.00,Wunderground v.1.15,2013-07-05 06:25:00,
2013-07-05 02:30:00,77.5,74.3,30.18,SE,135,2.0,-999.0,90,0.00,,,0.00,Wunderground v.1.15,2013-07-05 06:30:00,
2013-07-05 02:35:00,77.5,74.3,30.19,SE,135,2.0,-999.0,90,0.00,,,0.00,Wunderground v.1.15,2013-07-05 06:35:00,
2013-07-05 02:40:00,77.5,74.3,30.18,SE,135,0.0,-999.0,90,0.00,,,0.00,Wunderground v.1.15,2013-07-05 06:40:00,
2013-07-05 02:45:00,77.4,74.2,30.18,SE,135,0.0,-999.0,90,0.00,,,0.00,Wunderground v.1.15,2013-07-05 06:45:00,
2013-07-05 02:50:00,77.4,74.2,30.18,SE,135,1.0,-999.0,90,0.00,,,0.00,Wunderground v.1.15,2013-07-05 06:50:00,
2013-07-05 02:55:00,77.5,74.3,30.18,SE,135,0.0,-999.0,90,0.00,,,0.00,Wunderground v.1.15,2013-07-05 06:55:00,
2013-07-05 03:00:00,77.5,74.3,30.18,SE,135,1.0,-999.0,90,0.00,,,0.00,Wunderground v.1.15,2013-07-05 07:00:00,
2013-07-05 03:05:00,77.6,74.4,30.18,SE,135,2.0,-999.0,90,0.00,,,0.00,Wunderground v.1.15,2013-07-05 07:05:00,
2013-07-05 03:10:00,77.6,74.4,30.18,SSE,158,1.0,-999.0,90,0.00,,,0.00,Wunderground v.1.15,2013-07-05 07:10:00,
2013-07-05 03:15:00,77.6,74.4,30.17,SSE,158,2.0,-999.0,90,0.00,,,0.00,Wunderground v.1.15,2013-07-05 07:15:00,
2013-07-05 03:20:00,77.6,74.4,30.17,SSE,158,1.0,-999.0,90,0.00,,,0.00,Wunderground v.1.15,2013-07-05 07:20:00,
2013-07-05 03:25:00,77.6,74.4,30.17,SSE,158,2.0,-999.0,90,0.00,,,0.00,Wunderground v.1.15,2013-07-05 07:25:00,
2013-07-05 03:30:00,77.6,74.4,30.18,SSE,158,0.0,-999.0,90,0.00,,,0.00,Wunderground v.1.15,2013-07-05 07:30:00,
2013-07-05 03:35:00,77.4,74.2,30.18,N/A,-737280,0.0,-999.0,90,0.00,,,0.00,Wunderground v.1.15,2013-07-05 07:35:00,
2013-07-05 03:40:00,77.1,73.9,30.17,N/A,-737280,0.0,-999.0,90,0.00,,,0.00,Wunderground v.1.15,2013-07-05 07:40:00,
2013-07-05 03:45:00,76.9,74.1,30.17,N/A,-737280,0.0,-999.0,91,0.00,,,0.00,Wunderground v.1.15,2013-07-05 07:45:00,
2013-07-05 03:50:00,76.7,73.9,30.17,N/A,-737280,0.0,-999.0,91,0.00,,,0.00,Wunderground v.1.15,2013-07-05 07:50:00,
2013-07-05 03:55:00,76.8,74.3,30.17,SE,135,0.0,-999.0,92,0.00,,,0.00,Wunderground v.1.15,2013-07-05 07:55:00,
2013-07-05 04:00:00,76.9,74.4,30.18,SE,135,1.0,-999.0,92,0.00,,,0.00,Wunderground v.1.15,2013-07-05 08:00:00,
2013-07-05 04:05:00,77.1,74.3,30.18,SE,135,1.0,-999.0,91,0.00,,,0.00,Wunderground v.1.15,2013-07-05 08:05:00,
2013-07-05 04:10:00,77.3,74.5,30.18,SE,135,0.0,-999.0,91,0.00,,,0.00,Wunderground v.1.15,2013-07-05 08:10:00,
2013-07-05 04:15:00,77.4,74.6,30.17,SE,135,1.0,-999.0,91,0.00,,,0.00,Wunderground v.1.15,2013-07-05 08:15:00,
2013-07-05 04:20:00,77.5,74.7,30.17,SE,135,1.0,-999.0,91,0.00,,,0.00,Wunderground v.1.15,2013-07-05 08:20:00,
2013-07-05 04:25:00,77.5,74.7,30.17,SE,135,1.0,-999.0,91,0.00,,,0.00,Wunderground v.1.15,2013-07-05 08:25:00,
2013-07-05 04:30:00,77.4,74.6,30.17,SE,135,1.0,-999.0,91,0.00,,,0.00,Wunderground v.1.15,2013-07-05 08:30:00,
2013-07-05 04:35:00,77.4,74.6,30.17,SE,135,2.0,-999.0,91,0.00,,,0.00,Wunderground v.1.15,2013-07-05 08:35:00,
2013-07-05 04:40:00,77.4,74.6,30.17,SE,135,1.0,-999.0,91,0.00,,,0.00,Wunderground v.1.15,2013-07-05 08:40:00,
2013-07-05 04:45:00,77.3,74.5,30.17,SE,135,1.0,-999.0,91,0.00,,,0.00,Wunderground v.1.15,2013-07-05 08:45:00,
2013-07-05 04:50:00,77.3,74.5,30.17,SE,135,0.0,-999.0,91,0.00,,,0.00,Wunderground v.1.15,2013-07-05 08:50:00,
2013-07-05 04:55:00,77.3,74.5,30.18,SE,135,2.0,-999.0,91,0.00,,,0.00,Wunderground v.1.15,2013-07-05 08:55:00,
2013-07-05 05:00:00,77.3,74.5,30.18,SE,135,2.0,-999.0,91,0.00,,,0.00,Wunderground v.1.15,2013-07-05 09:00:00,
2013-07-05 05:05:00,77.4,74.6,30.17,SE,135,2.0,-999.0,91,0.00,,,0.00,Wunderground v.1.15,2013-07-05 09:05:00,
2013-07-05 05:10:00,77.3,74.5,30.18,SE,135,1.0,-999.0,91,0.00,,,0.00,Wunderground v.1.15,2013-07-05 09:10:00,
2013-07-05 05:15:00,77.2,74.4,30.18,SE,135,1.0,-999.0,91,0.00,,,0.00,Wunderground v.1.15,2013-07-05 09:15:00,
2013-07-05 05:20:00,77.1,74.3,30.18,SE,135,0.0,-999.0,91,0.00,,,0.00,Wunderground v.1.15,2013-07-05 09:20:00,
2013-07-05 05:25:00,77.1,74.6,30.18,N/A,-737280,0.0,-999.0,92,0.00,,,0.00,Wunderground v.1.15,2013-07-05 09:25:00,
2013-07-05 05:30:00,77.1,74.6,30.18,SE,135,1.0,-999.0,92,0.00,,,0.00,Wunderground v.1.15,2013-07-05 09:30:00,
2013-07-05 05:35:00,77.1,74.6,30.18,SE,135,1.0,-999.0,92,0.00,,,0.00,Wunderground v.1.15,2013-07-05 09:35:00,
2013-07-05 05:40:00,77.1,74.6,30.18,SE,135,0.0,-999.0,92,0.00,,,0.00,Wunderground v.1.15,2013-07-05 09:40:00,
2013-07-05 05:45:00,76.9,74.4,30.19,N/A,-737280,0.0,-999.0,92,0.00,,,0.00,Wunderground v.1.15,2013-07-05 09:45:00,
2013-07-05 05:50:00,76.7,74.2,30.19,N/A,-737280,0.0,-999.0,92,0.00,,,0.00,Wunderground v.1.15,2013-07-05 09:50:00,
2013-07-05 05:55:00,76.6,74.1,30.19,SE,135,0.0,-999.0,92,0.00,,,0.00,Wunderground v.1.15,2013-07-05 09:55:00,
2013-07-05 06:00:00,76.6,74.4,30.19,SE,135,1.0,-999.0,93,0.00,,,0.00,Wunderground v.1.15,2013-07-05 10:00:00,
2013-07-05 06:05:00,76.7,74.5,30.19,SE,135,0.0,-999.0,93,0.00,,,0.00,Wunderground v.1.15,2013-07-05 10:05:00,
2013-07-05 06:10:00,76.7,74.5,30.19,N/A,-737280,0.0,-999.0,93,0.00,,,0.00,Wunderground v.1.15,2013-07-05 10:10:00,
2013-07-05 06:15:00,76.6,74.4,30.19,SE,135,0.0,-999.0,93,0.00,,,0.00,Wunderground v.1.15,2013-07-05 10:15:00,
2013-07-05 06:20:00,76.2,74.0,30.19,N/A,-737280,0.0,-999.0,93,0.00,,,0.00,Wunderground v.1.15,2013-07-05 10:20:00,
2013-07-05 06:25:00,76.2,74.0,30.19,SE,135,0.0,-999.0,93,0.00,,,0.00,Wunderground v.1.15,2013-07-05 10:25:00,
2013-07-05 06:30:00,76.5,74.6,30.19,SE,135,1.0,-999.0,94,0.00,,,0.00,Wunderground v.1.15,2013-07-05 10:30:00,
2013-07-05 06:35:00,76.8,74.6,30.19,SE,135,1.0,-999.0,93,0.00,,,0.00,Wunderground v.1.15,2013-07-05 10:35:00,
2013-07-05 06:40:00,77.0,74.8,30.19,SE,135,0.0,-999.0,93,0.00,,,0.00,Wunderground v.1.15,2013-07-05 10:40:00,
2013-07-05 06:45:00,77.1,74.9,30.19,SE,135,1.0,-999.0,93,0.00,,,0.00,Wunderground v.1.15,2013-07-05 10:45:00,
2013-07-05 06:50:00,77.4,75.2,30.19,SE,135,2.0,-999.0,93,0.00,,,0.00,Wunderground v.1.15,2013-07-05 10:50:00,
2013-07-05 06:55:00,77.8,75.6,30.20,SE,135,2.0,-999.0,93,0.00,,,0.00,Wunderground v.1.15,2013-07-05 10:55:00,
2013-07-05 07:00:00,78.0,75.5,30.20,SSE,158,2.0,-999.0,92,0.00,,,0.00,Wunderground v.1.15,2013-07-05 11:00:00,
2013-07-05 07:05:00,78.3,75.8,30.20,SSE,158,2.0,-999.0,92,0.00,,,0.00,Wunderground v.1.15,2013-07-05 11:05:00,
2013-07-05 07:10:00,78.5,75.7,30.20,SSE,158,2.0,-999.0,91,0.00,,,0.00,Wunderground v.1.15,2013-07-05 11:10:00,
2013-07-05 07:15:00,78.7,75.8,30.20,SSE,158,2.0,-999.0,91,0.00,,,0.00,Wunderground v.1.15,2013-07-05 11:15:00,
2013-07-05 07:20:00,78.8,75.9,30.20,SSE,158,3.0,-999.0,91,0.00,,,0.00,Wunderground v.1.15,2013-07-05 11:20:00,
2013-07-05 07:25:00,78.9,75.7,30.20,SSE,158,2.0,-999.0,90,0.00,,,0.00,Wunderground v.1.15,2013-07-05 11:25:00,
2013-07-05 07:30:00,79.1,75.9,30.20,SSE,158,2.0,-999.0,90,0.00,,,0.00,Wunderground v.1.15,2013-07-05 11:30:00,
2013-07-05 07:35:00,79.2,76.0,30.20,SE,135,3.0,-999.0,90,0.00,,,0.00,Wunderground v.1.15,2013-07-05 11:35:00,
2013-07-05 07:40:00,79.3,76.1,30.21,SE,135,2.0,-999.0,90,0.00,,,0.00,Wunderground v.1.15,2013-07-05 11:40:00,
2013-07-05 07:45:00,79.5,76.0,30.20,SSE,158,4.0,-999.0,89,0.00,,,0.00,Wunderground v.1.15,2013-07-05 11:45:00,
2013-07-05 07:50:00,79.6,76.1,30.21,SSE,158,3.0,-999.0,89,0.00,,,0.00,Wunderground v.1.15,2013-07-05 11:50:00,
2013-07-05 07:55:00,79.6,76.1,30.20,SSE,158,4.0,-999.0,89,0.00,,,0.00,Wunderground v.1.15,2013-07-05 11:55:00,
2013-07-05 08:00:00,80.0,76.5,30.20,SSE,158,3.0,-999.0,89,0.00,,,0.00,Wunderground v.1.15,2013-07-05 12:00:00,
2013-07-05 08:05:00,80.4,76.5,30.20,SSE,158,4.0,-999.0,88,0.00,,,0.00,Wunderground v.1.15,2013-07-05 12:05:00,
2013-07-05 08:10:00,80.6,76.4,30.21,SSE,158,7.0,-999.0,87,0.00,,,0.00,Wunderground v.1.15,2013-07-05 12:10:00,
2013-07-05 08:15:00,80.9,76.3,30.20,SSE,158,5.0,-999.0,86,0.00,,,0.00,Wunderground v.1.15,2013-07-05 12:15:00,
2013-07-05 08:20:00,81.3,76.4,30.20,SE,135,4.0,-999.0,85,0.00,,,0.00,Wunderground v.1.15,2013-07-05 12:20:00,
2013-07-05 08:25:00,81.3,76.4,30.20,SE,135,6.0,-999.0,85,0.00,,,0.00,Wunderground v.1.15,2013-07-05 12:25:00,
2013-07-05 08:30:00,81.2,76.6,30.21,South,180,3.0,-999.0,86,0.00,,,0.00,Wunderground v.1.15,2013-07-05 12:30:00,
2013-07-05 08:35:00,81.5,76.6,30.21,SSE,158,4.0,-999.0,85,0.00,,,0.00,Wunderground v.1.15,2013-07-05 12:35:00,
2013-07-05 08:40:00,81.2,75.9,30.21,SSE,158,5.0,-999.0,84,0.00,,,0.00,Wunderground v.1.15,2013-07-05 12:40:00,
2013-07-05 08:45:00,81.0,76.1,30.20,SSE,158,5.0,-999.0,85,0.00,,,0.00,Wunderground v.1.15,2013-07-05 12:45:00,
2013-07-05 08:50:00,81.6,76.3,30.21,SSE,158,5.0,-999.0,84,0.00,,,0.00,Wunderground v.1.15,2013-07-05 12:50:00,
2013-07-05 08:55:00,81.7,76.4,30.21,SSE,158,5.0,-999.0,84,0.00,,,0.00,Wunderground v.1.15,2013-07-05 12:55:00,
2013-07-05 09:00:00,81.8,76.1,30.21,SSE,158,5.0,-999.0,83,0.00,,,0.00,Wunderground v.1.15,2013-07-05 13:00:00,
2013-07-05 09:05:00,81.9,75.9,30.21,SSE,158,8.0,-999.0,82,0.00,,,0.00,Wunderground v.1.15,2013-07-05 13:05:00,
2013-07-05 09:10:00,81.8,76.1,30.21,SSE,158,8.0,-999.0,83,0.00,,,0.00,Wunderground v.1.15,2013-07-05 13:10:00,
2013-07-05 09:15:00,81.5,75.1,30.21,SSE,158,7.0,-999.0,81,0.00,,,0.00,Wunderground v.1.15,2013-07-05 13:15:00,
2013-07-05 09:20:00,81.4,75.7,30.21,SSE,158,7.0,-999.0,83,0.00,,,0.00,Wunderground v.1.15,2013-07-05 13:20:00,
2013-07-05 09:25:00,82.3,76.3,30.21,SSE,158,6.0,-999.0,82,0.00,,,0.00,Wunderground v.1.15,2013-07-05 13:25:00,
2013-07-05 09:30:00,82.4,75.6,30.21,SSE,158,7.0,-999.0,80,0.00,,,0.00,Wunderground v.1.15,2013-07-05 13:30:00,
2013-07-05 09:35:00,82.1,75.7,30.21,SSE,158,7.0,-999.0,81,0.00,,,0.00,Wunderground v.1.15,2013-07-05 13:35:00,
2013-07-05 09:40:00,83.1,76.7,30.21,SE,135,7.0,-999.0,81,0.00,,,0.00,Wunderground v.1.15,2013-07-05 13:40:00,
2013-07-05 09:45:00,83.5,75.9,30.21,SSE,158,7.0,-999.0,78,0.00,,,0.00,Wunderground v.1.15,2013-07-05 13:45:00,
2013-07-05 09:50:00,83.4,76.2,30.21,SSE,158,7.0,-999.0,79,0.00,,,0.00,Wunderground v.1.15,2013-07-05 13:50:00,
2013-07-05 09:55:00,83.2,76.0,30.21,SSE,158,8.0,-999.0,79,0.00,,,0.00,Wunderground v.1.15,2013-07-05 13:55:00,
2013-07-05 10:00:00,83.9,76.3,30.21,SE,135,6.0,-999.0,78,0.00,,,0.00,Wunderground v.1.15,2013-07-05 14:00:00,
2013-07-05 10:05:00,83.9,76.3,30.22,SE,135,6.0,-999.0,78,0.00,,,0.00,Wunderground v.1.15,2013-07-05 14:05:00,
2013-07-05 10:10:00,83.1,75.9,30.22,SSE,158,6.0,-999.0,79,0.00,,,0.00,Wunderground v.1.15,2013-07-05 14:10:00,
2013-07-05 10:15:00,83.1,75.9,30.22,SSE,158,5.0,-999.0,79,0.00,,,0.00,Wunderground v.1.15,2013-07-05 14:15:00,
2013-07-05 10:20:00,83.5,75.5,30.22,SSE,158,8.0,-999.0,77,0.00,,,0.00,Wunderground v.1.15,2013-07-05 14:20:00,
2013-07-05 10:25:00,82.8,75.6,30.22,SSE,158,8.0,-999.0,79,0.00,,,0.00,Wunderground v.1.15,2013-07-05 14:25:00,
2013-07-05 10:30:00,82.5,75.7,30.22,SSE,158,5.0,-999.0,80,0.00,,,0.00,Wunderground v.1.15,2013-07-05 14:30:00,
2013-07-05 10:35:00,83.6,76.0,30.22,SE,135,9.0,-999.0,78,0.00,,,0.00,Wunderground v.1.15,2013-07-05 14:35:00,
2013-07-05 10:40:00,84.0,76.4,30.22,SSE,158,6.0,-999.0,78,0.00,,,0.00,Wunderground v.1.15,2013-07-05 14:40:00,
2013-07-05 10:45:00,85.0,77.0,30.22,SE,135,7.0,-999.0,77,0.00,,,0.00,Wunderground v.1.15,2013-07-05 14:45:00,
2013-07-05 10:50:00,84.8,76.0,30.22,SSE,158,8.0,-999.0,75,0.00,,,0.00,Wunderground v.1.15,2013-07-05 14:50:00,
2013-07-05 10:55:00,84.0,76.4,30.22,SSE,158,6.0,-999.0,78,0.00,,,0.00,Wunderground v.1.15,2013-07-05 14:55:00,
2013-07-05 11:00:00,84.1,76.5,30.22,SSE,158,6.0,-999.0,78,0.00,,,0.00,Wunderground v.1.15,2013-07-05 15:00:00,
2013-07-05 11:05:00,84.5,76.1,30.22,SSE,158,8.0,-999.0,76,0.00,,,0.00,Wunderground v.1.15,2013-07-05 15:05:00,
2013-07-05 11:10:00,84.2,76.6,30.22,SSE,158,6.0,-999.0,78,0.00,,,0.00,Wunderground v.1.15,2013-07-05 15:10:00,
2013-07-05 11:15:00,83.7,76.1,30.23,SSE,158,6.0,-999.0,78,0.00,,,0.00,Wunderground v.1.15,2013-07-05 15:15:00,
2013-07-05 11:20:00,83.6,76.0,30.22,SSE,158,7.0,-999.0,78,0.00,,,0.00,Wunderground v.1.15,2013-07-05 15:20:00,
2013-07-05 11:25:00,83.5,75.9,30.22,SE,135,10.0,-999.0,78,0.00,,,0.00,Wunderground v.1.15,2013-07-05 15:25:00,
2013-07-05 11:30:00,84.5,76.5,30.22,SE,135,8.0,-999.0,77,0.00,,,0.00,Wunderground v.1.15,2013-07-05 15:30:00,
2013-07-05 11:35:00,84.9,76.5,30.22,SSE,158,8.0,-999.0,76,0.00,,,0.00,Wunderground v.1.15,2013-07-05 15:35:00,
2013-07-05 11:40:00,84.8,76.4,30.22,SSE,158,8.0,-999.0,76,0.00,,,0.00,Wunderground v.1.15,2013-07-05 15:40:00,
2013-07-05 11:45:00,84.3,75.9,30.21,SSE,158,8.0,-999.0,76,0.00,,,0.00,Wunderground v.1.15,2013-07-05 15:45:00,
2013-07-05 11:50:00,84.8,75.6,30.21,SSE,158,9.0,-999.0,74,0.00,,,0.00,Wunderground v.1.15,2013-07-05 15:50:00,
2013-07-05 11:55:00,85.6,75.9,30.22,SE,135,9.0,-999.0,73,0.00,,,0.00,Wunderground v.1.15,2013-07-05 15:55:00,
2013-07-05 12:00:00,85.5,76.3,30.22,SE,135,10.0,-999.0,74,0.00,,,0.00,Wunderground v.1.15,2013-07-05 16:00:00,
2013-07-05 12:05:00,85.2,76.0,30.21,SSE,158,9.0,-999.0,74,0.00,,,0.00,Wunderground v.1.15,2013-07-05 16:05:00,
2013-07-05 12:09:00,85.4,76.2,30.21,SSE,155,9.0,12.0,74,0.00,,,0.00,Wunderground v.1.15,2013-07-05 16:09:00,
2013-07-05 12:10:00,85.4,76.6,30.21,SSE,158,9.0,-999.0,75,0.00,,,0.00,Wunderground v.1.15,2013-07-05 16:10:00,
2013-07-05 12:14:00,84.9,76.5,30.21,SE,141,9.0,12.0,76,0.00,,,0.00,Wunderground v.1.15,2013-07-05 16:14:00,
2013-07-05 12:15:00,84.8,76.4,30.21,SSE,158,9.0,-999.0,76,0.00,,,0.00,Wunderground v.1.15,2013-07-05 16:15:00,
2013-07-05 12:19:00,84.5,76.1,30.21,SE,146,8.0,8.0,76,0.00,,,0.00,Wunderground v.1.15,2013-07-05 16:19:00,
2013-07-05 12:28:00,84.7,76.7,30.21,SSE,158,7.0,-999.0,77,0.00,,,0.00,Wunderground v.1.15,2013-07-05 16:28:00,
2013-07-05 12:34:00,85.1,76.3,30.22,SSE,149,7.0,15.0,75,0.00,,,0.00,Wunderground v.1.15,2013-07-05 16:34:00,
2013-07-05 12:39:00,84.3,76.3,30.22,SE,141,8.0,8.0,77,0.00,,,0.00,Wunderground v.1.15,2013-07-05 16:39:00,
2013-07-05 12:50:00,83.3,75.7,30.22,SSE,165,9.0,9.0,78,0.00,,,0.00,Wunderground v.1.15,2013-07-05 16:50:00,
2013-07-05 12:59:00,82.8,76.4,30.22,SSE,153,9.0,9.0,81,0.00,,,0.00,Wunderground v.1.15,2013-07-05 16:59:00,
2013-07-05 13:04:00,82.5,76.1,30.21,SSE,152,8.0,9.0,81,0.00,,,0.00,Wunderground v.1.15,2013-07-05 17:04:00,
2013-07-05 13:14:00,83.0,76.2,30.21,SSE,159,7.0,11.0,80,0.00,,,0.00,Wunderground v.1.15,2013-07-05 17:14:00,
2013-07-05 13:24:00,83.7,76.9,30.21,South,173,9.0,10.0,80,0.00,,,0.00,Wunderground v.1.15,2013-07-05 17:24:00,
2013-07-05 13:34:00,83.6,76.4,30.21,SSE,162,10.0,10.0,79,0.00,,,0.00,Wunderground v.1.15,2013-07-05 17:34:00,
2013-07-05 13:45:00,84.0,76.4,30.21,SSE,163,10.0,10.0,78,0.00,,,0.00,Wunderground v.1.15,2013-07-05 17:45:00,
2013-07-05 13:54:00,85.3,76.9,30.20,SSE,152,9.0,9.0,76,0.00,,,0.00,Wunderground v.1.15,2013-07-05 17:54:00,
2013-07-05 13:59:00,84.8,77.2,30.20,SSE,151,10.0,11.0,78,0.00,,,0.00,Wunderground v.1.15,2013-07-05 17:59:00,
2013-07-05 14:10:00,84.8,76.4,30.20,SSE,148,11.0,11.0,76,0.00,,,0.00,Wunderground v.1.15,2013-07-05 18:10:00,
2013-07-05 14:19:00,85.1,75.5,30.20,SSE,155,8.0,9.0,73,0.00,,,0.00,Wunderground v.1.15,2013-07-05 18:19:00,
2013-07-05 14:24:00,84.2,75.0,30.20,SSE,162,9.0,9.0,74,0.00,,,0.00,Wunderground v.1.15,2013-07-05 18:24:00,
2013-07-05 14:34:00,85.5,75.9,30.20,SSE,151,8.0,9.0,73,0.00,,,0.00,Wunderground v.1.15,2013-07-05 18:34:00,
2013-07-05 14:44:00,84.9,75.3,30.20,South,175,10.0,10.0,73,0.00,,,0.00,Wunderground v.1.15,2013-07-05 18:44:00,
2013-07-05 14:54:00,86.0,75.9,30.19,SE,136,9.0,16.0,72,0.00,,,0.00,Wunderground v.1.15,2013-07-05 18:54:00,
2013-07-05 15:04:00,85.3,76.1,30.19,SE,128,11.0,13.0,74,0.00,,,0.00,Wunderground v.1.15,2013-07-05 19:04:00,
2013-07-05 15:09:00,85.6,75.9,30.19,SE,144,9.0,9.0,73,0.00,,,0.00,Wunderground v.1.15,2013-07-05 19:09:00,
2013-07-05 15:19:00,85.6,75.5,30.18,South,169,9.0,9.0,72,0.00,,,0.00,Wunderground v.1.15,2013-07-05 19:19:00,
2013-07-05 15:29:00,85.1,75.5,30.18,SSE,164,8.0,11.0,73,0.00,,,0.00,Wunderground v.1.15,2013-07-05 19:29:00,
2013-07-05 15:40:00,84.4,75.6,30.18,SSE,165,8.0,8.0,75,0.00,,,0.00,Wunderground v.1.15,2013-07-05 19:40:00,
2013-07-05 15:49:00,84.9,75.7,30.17,SSE,150,8.0,8.0,74,0.00,,,0.00,Wunderground v.1.15,2013-07-05 19:49:00,
2013-07-05 15:54:00,84.1,75.3,30.17,SSE,150,9.0,9.0,75,0.00,,,0.00,Wunderground v.1.15,2013-07-05 19:54:00,
2013-07-05 16:00:00,84.2,75.4,30.17,SSE,161,9.0,12.0,75,0.00,,,0.00,Wunderground v.1.15,2013-07-05 20:00:00,
2013-07-05 16:10:00,84.1,75.7,30.16,SE,146,10.0,10.0,76,0.00,,,0.00,Wunderground v.1.15,2013-07-05 20:10:00,
2013-07-05 16:19:00,82.8,75.2,30.16,South,171,10.0,10.0,78,0.00,,,0.00,Wunderground v.1.15,2013-07-05 20:19:00,
2013-07-05 16:24:00,83.3,75.3,30.16,SSE,162,10.0,10.0,77,0.00,,,0.00,Wunderground v.1.15,2013-07-05 20:24:00,
2013-07-05 16:29:00,83.0,74.6,30.16,SSE,161,11.0,15.0,76,0.00,,,0.00,Wunderground v.1.15,2013-07-05 20:29:00,
2013-07-05 16:34:00,82.9,75.3,30.16,SSE,157,11.0,15.0,78,0.00,,,0.00,Wunderground v.1.15,2013-07-05 20:34:00,
2013-07-05 16:44:00,82.9,74.9,30.16,South,186,10.0,11.0,77,0.00,,,0.00,Wunderground v.1.15,2013-07-05 20:44:00,
2013-07-05 16:54:00,83.1,75.1,30.16,SSE,165,10.0,10.0,77,0.00,,,0.00,Wunderground v.1.15,2013-07-05 20:54:00,
2013-07-05 17:04:00,82.9,75.3,30.16,South,177,9.0,9.0,78,0.00,,,0.00,Wunderground v.1.15,2013-07-05 21:04:00,
2013-07-05 17:15:00,83.3,74.9,30.16,SSE,164,8.0,9.0,76,0.00,,,0.00,Wunderground v.1.15,2013-07-05 21:15:00,
2013-07-05 17:24:00,83.2,75.6,30.16,SSE,150,8.0,9.0,78,0.00,,,0.00,Wunderground v.1.15,2013-07-05 21:24:00,
2013-07-05 17:29:00,83.1,75.5,30.16,SE,146,8.0,11.0,78,0.00,,,0.00,Wunderground v.1.15,2013-07-05 21:29:00,
2013-07-05 17:39:00,82.3,75.5,30.16,SSE,161,9.0,9.0,80,0.00,,,0.00,Wunderground v.1.15,2013-07-05 21:39:00,
2013-07-05 17:49:00,81.9,75.1,30.15,SSE,162,8.0,9.0,80,0.00,,,0.00,Wunderground v.1.15,2013-07-05 21:49:00,
2013-07-05 18:00:00,82.9,74.9,30.15,SE,144,8.0,11.0,77,0.00,,,0.00,Wunderground v.1.15,2013-07-05 22:00:00,
2013-07-05 18:09:00,82.7,76.3,30.15,South,178,7.0,8.0,81,0.00,,,0.00,Wunderground v.1.15,2013-07-05 22:09:00,
2013-07-05 18:14:00,82.4,75.2,30.15,SSE,163,8.0,8.0,79,0.00,,,0.00,Wunderground v.1.15,2013-07-05 22:14:00,
2013-07-05 18:20:00,82.0,75.6,30.15,SE,131,8.0,10.0,81,0.00,,,0.00,Wunderground v.1.15,2013-07-05 22:20:00,
2013-07-05 18:29:00,82.6,75.8,30.15,SSE,155,8.0,9.0,80,0.00,,,0.00,Wunderground v.1.15,2013-07-05 22:29:00,
2013-07-05 18:34:00,82.6,75.8,30.15,SSE,150,8.0,9.0,80,0.00,,,0.00,Wunderground v.1.15,2013-07-05 22:34:00,
2013-07-05 18:44:00,82.7,75.9,30.15,South,180,10.0,10.0,80,0.00,,,0.00,Wunderground v.1.15,2013-07-05 22:44:00,
2013-07-05 18:54:00,82.2,75.0,30.16,South,179,9.0,11.0,79,0.00,,,0.00,Wunderground v.1.15,2013-07-05 22:54:00,
2013-07-05 19:04:00,82.1,74.9,30.16,SSW,202,7.0,8.0,79,0.00,,,0.00,Wunderground v.1.15,2013-07-05 23:04:00,
2013-07-05 19:14:00,81.6,74.5,30.16,SE,140,9.0,11.0,79,0.00,,,0.00,Wunderground v.1.15,2013-07-05 23:14:00,
2013-07-05 19:19:00,81.3,74.9,30.16,South,183,8.0,10.0,81,0.00,,,0.00,Wunderground v.1.15,2013-07-05 23:19:00,
2013-07-05 19:29:00,81.2,74.8,30.16,SE,146,7.0,8.0,81,0.00,,,0.00,Wunderground v.1.15,2013-07-05 23:29:00,
2013-07-05 19:39:00,81.2,74.8,30.16,SSE,155,5.0,7.0,81,0.00,,,0.00,Wunderground v.1.15,2013-07-05 23:39:00,
2013-07-05 19:50:00,80.9,74.9,30.16,South,170,6.0,11.0,82,0.00,,,0.00,Wunderground v.1.15,2013-07-05 23:50:00,
2013-07-05 20:00:00,80.5,74.5,30.17,SSE,157,6.0,7.0,82,0.00,,,0.00,Wunderground v.1.15,2013-07-06 00:00:00,
2013-07-05 20:04:00,80.3,74.7,30.17,South,170,5.0,7.0,83,0.00,,,0.00,Wunderground v.1.15,2013-07-06 00:04:00,
2013-07-05 20:14:00,80.3,74.7,30.17,SE,144,6.0,8.0,83,0.00,,,0.00,Wunderground v.1.15,2013-07-06 00:14:00,
2013-07-05 20:24:00,80.1,74.5,30.18,SW,226,5.0,8.0,83,0.00,,,0.00,Wunderground v.1.15,2013-07-06 00:24:00,
2013-07-05 20:34:00,79.9,74.3,30.17,SSE,158,3.0,4.0,83,0.00,,,0.00,Wunderground v.1.15,2013-07-06 00:34:00,
2013-07-05 20:44:00,79.6,74.0,30.17,SSE,159,5.0,7.0,83,0.00,,,0.00,Wunderground v.1.15,2013-07-06 00:44:00,
2013-07-05 20:55:00,79.4,73.8,30.17,SSE,163,4.0,4.0,83,0.00,,,0.00,Wunderground v.1.15,2013-07-06 00:55:00,
2013-07-05 21:04:00,79.3,73.7,30.17,South,182,4.0,4.0,83,0.00,,,0.00,Wunderground v.1.15,2013-07-06 01:04:00,
2013-07-05 21:09:00,79.2,73.9,30.18,South,187,3.0,3.0,84,0.00,,,0.00,Wunderground v.1.15,2013-07-06 01:09:00,
2013-07-05 21:19:00,78.9,73.7,30.18,South,180,2.0,2.0,84,0.00,,,0.00,Wunderground v.1.15,2013-07-06 01:19:00,
2013-07-05 21:29:00,78.7,73.8,30.19,South,169,1.0,1.0,85,0.00,,,0.00,Wunderground v.1.15,2013-07-06 01:29:00,
2013-07-05 21:39:00,78.5,73.6,30.19,SSW,201,0.0,1.0,85,0.00,,,0.00,Wunderground v.1.15,2013-07-06 01:39:00,
2013-07-05 21:49:00,78.4,73.5,30.19,SSW,200,0.0,1.0,85,0.00,,,0.00,Wunderground v.1.15,2013-07-06 01:49:00,
2013-07-05 21:59:00,78.3,73.8,30.20,SSW,200,0.0,0.0,86,0.00,,,0.00,Wunderground v.1.15,2013-07-06 01:59:00,
2013-07-05 22:09:00,78.2,73.7,30.20,SSW,200,0.0,0.0,86,0.00,,,0.00,Wunderground v.1.15,2013-07-06 02:09:00,
2013-07-05 22:19:00,78.2,73.7,30.20,SSW,200,0.0,0.0,86,0.00,,,0.00,Wunderground v.1.15,2013-07-06 02:19:00,
2013-07-05 22:29:00,78.3,73.8,30.20,SSW,200,0.0,1.0,86,0.00,,,0.00,Wunderground v.1.15,2013-07-06 02:29:00,
2013-07-05 22:39:00,78.5,73.6,30.20,SSE,149,1.0,2.0,85,0.00,,,0.00,Wunderground v.1.15,2013-07-06 02:39:00,
2013-07-05 22:49:00,78.5,73.6,30.20,SSE,150,2.0,2.0,85,0.00,,,0.00,Wunderground v.1.15,2013-07-06 02:49:00,
2013-07-05 22:55:00,78.5,73.6,30.20,SSE,150,1.0,2.0,85,0.00,,,0.00,Wunderground v.1.15,2013-07-06 02:55:00,
2013-07-05 23:04:00,78.1,73.6,30.20,SSE,150,0.0,1.0,86,0.00,,,0.00,Wunderground v.1.15,2013-07-06 03:04:00,
2013-07-05 23:09:00,77.8,73.3,30.20,SSE,150,0.0,0.0,86,0.00,,,0.00,Wunderground v.1.15,2013-07-06 03:09:00,
2013-07-05 23:19:00,77.0,73.2,30.20,SSE,150,0.0,0.0,88,0.00,,,0.00,Wunderground v.1.15,2013-07-06 03:19:00,
2013-07-05 23:29:00,76.7,73.5,30.21,SSE,150,0.0,0.0,90,0.00,,,0.00,Wunderground v.1.15,2013-07-06 03:29:00,
2013-07-05 23:39:00,76.0,73.2,30.21,SSE,150,0.0,0.0,91,0.00,,,0.00,Wunderground v.1.15,2013-07-06 03:39:00,
2013-07-05 23:49:00,75.6,73.1,30.21,SSE,150,0.0,0.0,92,0.00,,,0.00,Wunderground v.1.15,2013-07-06 03:49:00,
2013-07-05 23:55:00,75.6,73.4,30.21,SSE,150,0.0,0.0,93,0.00,,,0.00,Wunderground v.1.15,2013-07-06 03:55:00,